Station PRDA2 - 9497645 - Prudhoe Bay, AK Image indicating link to RSS feed of recent meteorological observations for station PRDA2


Conditions at PRDA2 as of
(3:00 am AKDT)
1100 GMT on 04/16/2024:
     

Click on the graph icon in the table below to see a time series plot of the last five days of that observation.

5-day plot - Wind Direction Wind Direction (WDIR): S ( 180 deg true )
5-day plot - Wind Speed Wind Speed (WSPD): 15.0 kts
5-day plot - Wind Gust Wind Gust (GST): 17.1 kts
5-day plot - Atmospheric Pressure Atmospheric Pressure (PRES):29.90 in
5-day plot - Pressure Tendency Pressure Tendency (PTDY):-0.02 in ( Falling )
5-day plot - Water Temperature Water Temperature (WTMP): 28.8 °F
5-day plot - Wind Speed at 10 Meters Wind Speed at 10 meters (WSPD10M): 15.5 kts
5-day plot - Wind Speed at 20 Meters Wind Speed at 20 meters (WSPD20M): 17.5 kts
5-day plot -  Wind Speed, Wind Gust and Atmospheric Pressure Combined plot of Wind Speed, Gust, and Air Pressure
NOS Water Level Observation Network Water Level
Previous observations
TIME
(AKDT)
5-day plot - Wind Direction
WDIR
 
5-day plot - Wind Speed
WSPD
kts
5-day plot - Wind Gust
GST
kts
5-day plot - Wave Height
WVHT
ft
5-day plot - Dominant Wave Period
DPD
sec
5-day plot - Average Wave Period
APD
sec
5-day plot - Mean Wave Direction
MWD
 
5-day plot - Atmospheric Pressure
PRES
in
5-day plot - Pressure Tendency
PTDY
in
5-day plot - Air Temperature
ATMP
°F
5-day plot - Water Temperature
WTMP
°F
5-day plot - Dew Point
DEWP
°F
5-day plot - Salinity
SAL
psu
5-day plot - Visibility
VIS
nmi
5-day plot - Tide (above MLLW)
TIDE
ft
2024-04-16 02:54 am S 12.0 15.0----29.90-- 28.6----
2024-04-16 02:48 amSSE 13.0 14.0----29.91- 10.9 28.6----
2024-04-16 02:42 amSSE 12.0 13.0----29.90- 11.1 28.6----
2024-04-16 02:36 amSSE 12.0 13.0----29.90- 11.8 28.6----
2024-04-16 02:30 amSSE 11.1 12.0----29.91- 12.0 28.6----
2024-04-16 02:24 amSSE 12.0 13.0----29.91- 13.6 28.8----
2024-04-16 02:18 am SE 11.1 13.0----29.91- 10.2 28.8----
2024-04-16 02:12 amSSE 13.0 14.0----29.91- 14.9 28.6----
2024-04-16 02:06 amSSE 12.0 13.0----29.91- 14.2 28.6----
2024-04-16 02:00 amSSE 12.0 14.0----29.91-0.04 13.5 28.6----
2024-04-16 01:54 amSSE 13.0 15.0----29.91- 12.9 28.8----
2024-04-16 01:48 amSSE 14.0 15.9----29.91- 13.5 28.8----
2024-04-16 01:42 am SE 14.0 15.0----29.91- 12.4 28.8----
2024-04-16 01:36 am SE 15.0 15.9----29.91- 12.9 28.6----
2024-04-16 01:30 am SE 14.0 15.0----29.91- 10.2 28.6----
2024-04-16 01:24 am SE 14.0 15.9----29.91- 11.3 28.6----
2024-04-16 01:18 am-------29.91-- 28.6----
2024-04-16 01:12 am SE 14.0 15.0----29.92- 12.6 28.6----
2024-04-16 01:06 am SE 14.0 15.0----29.91- 15.1 28.8----
2024-04-16 01:00 am SE 14.0 14.0----29.91-0.05 15.1 28.8----
2024-04-16 12:54 am SE 13.0 14.0----29.91- 14.7 28.8----
2024-04-16 12:48 am SE 13.0 14.0----29.91- 16.2-----
2024-04-16 12:42 am SE 12.0 13.0----29.92- 13.3 28.6----
2024-04-16 12:36 am SE 12.0 13.0----29.92- 12.9 28.6----
2024-04-16 12:30 am SE 13.0 13.0----29.92- 14.7 28.6----
2024-04-16 12:24 am SE 11.1 13.0----29.92- 15.4 28.8----
2024-04-16 12:18 am SE 11.1 12.0----29.92- 14.4 28.8----
2024-04-16 12:12 am SE 9.9 12.0----29.93- 14.9 28.8----
2024-04-16 12:06 am SE 11.1 13.0----29.93- 14.9 28.6----
2024-04-16 12:00 am SE 12.0 13.0----29.93-0.06 17.1 28.6----
2024-04-15 11:54 pm SE 12.0 13.0----29.93- 16.7 28.6----
2024-04-15 11:48 pm SE 12.0 12.0----29.93- 16.3 28.6----
2024-04-15 11:42 pm SE 12.0 13.0----29.94- 16.7 28.6----
2024-04-15 11:36 pmSSE 12.0 13.0----29.94- 17.6 28.8----
2024-04-15 11:30 pm SE 11.1 12.0----29.94- 17.2 28.6----
2024-04-15 11:24 pmSSE 9.9 11.1----29.95- 16.7 28.8----
2024-04-15 11:18 pm SE 9.9 12.0----29.95- 15.3 28.6----
2024-04-15 11:12 pmSSE 13.0 14.0----29.95- 17.6 28.6----
2024-04-15 11:06 pmSSE 13.0 13.0----29.95- 17.6 28.6----
2024-04-15 11:00 pm SE 13.0 14.0----29.95-0.05 16.9 28.6----
2024-04-15 10:54 pm SE 14.0 17.1----29.95- 17.8 28.6----
2024-04-15 10:48 pmSSE 15.0 15.9----29.95- 19.0 28.6----
2024-04-15 10:42 pmSSE 15.0 15.9----29.95- 19.0 28.6----
2024-04-15 10:36 pmSSE 15.0 15.0----29.95- 18.9 28.6----
2024-04-15 10:30 pmSSE 14.0 17.1----29.96- 18.9 28.6----
2024-04-15 10:24 pm SE 14.0 17.1----29.96- 18.3 28.6----
2024-04-15 10:18 pm SE 14.0 15.9----29.96- 17.8-----
2024-04-15 10:12 pm SE 14.0 15.0----29.96- 17.1 28.6----
2024-04-15 10:06 pm SE 13.0 15.0----29.96- 15.8 28.6----
2024-04-15 10:00 pm SE 13.0 14.0----29.96-0.06 15.6 28.6----
2024-04-15 09:54 pm SE 12.0 14.0----29.97- 15.8 28.6----
2024-04-15 09:48 pm SE 12.0 13.0----29.97- 16.0 28.6----
2024-04-15 09:42 pm SE 11.1 12.0----29.97- 16.5 28.6----
2024-04-15 09:36 pm SE 12.0 13.0----29.97- 18.1 28.6----
2024-04-15 09:30 pmSSE 13.0 14.0----29.97- 19.6 28.6----
2024-04-15 09:24 pm SE 11.1 12.0----29.98- 17.6 28.6----
2024-04-15 09:18 pm SE 11.1 12.0----29.98- 17.4-----
2024-04-15 09:12 pmSSE 11.1 12.0----29.98- 18.5 28.6----
2024-04-15 09:06 pm SE 11.1 12.0----29.98- 18.5 28.6----
2024-04-15 09:00 pmSSE 12.0 13.0----29.98-0.05 19.8 28.6----
2024-04-15 08:54 pmSSE 13.0 13.0----29.98- 20.3 28.6----
2024-04-15 08:48 pmSSE 12.0 13.0----29.98- 19.0 28.6----
2024-04-15 08:42 pm SE 11.1 12.0----29.98- 19.0 28.6----
2024-04-15 08:36 pmSSE 12.0 13.0----29.98- 19.9 28.6----
2024-04-15 08:30 pmSSE 12.0 14.0----29.99- 21.4 28.6----
2024-04-15 08:24 pmSSE 13.0 14.0----29.99- 22.8 28.6----
2024-04-15 08:18 pmSSE 13.0 13.0----29.99- 22.3 28.6----
2024-04-15 08:12 pmSSE 13.0 14.0----29.99- 22.1 28.6----
2024-04-15 08:06 pmSSE 14.0 15.0----29.99- 22.8 28.6----
2024-04-15 08:00 pmSSE 13.0 14.0----30.00-0.04 22.6 28.6----
2024-04-15 07:54 pmSSE 13.0 15.0----30.00- 24.1 28.6----
2024-04-15 07:48 pm S 14.0 15.0----30.00- 24.6 28.6----
2024-04-15 07:42 pmSSE 13.0 15.9----30.00- 24.6 28.6----
2024-04-15 07:36 pm S 12.0 15.9----30.01- 27.9 28.6----
2024-04-15 07:30 pm S 15.0 18.1----30.01- 28.8 28.6----
2024-04-15 07:24 pm S 12.0 15.9----30.02- 27.1 28.6----
2024-04-15 07:18 pm S 14.0 15.9----30.02- 28.0 28.6----
2024-04-15 07:12 pm S 9.9 13.0----30.03- 26.6 28.6----
2024-04-15 07:06 pm S 11.1 13.0----30.03- 26.8 28.6----
2024-04-15 07:00 pm S 8.9 12.0----30.03-0.01 25.3 28.6----
2024-04-15 06:54 pm S 8.9 14.0----30.03- 26.8 28.6----
2024-04-15 06:48 pm S 12.0 15.0----30.03- 26.6 28.6----
2024-04-15 06:42 pm S 12.0 15.0----30.03- 27.0 28.6----
2024-04-15 06:36 pm S 13.0 15.0----30.03- 27.7 28.6----
2024-04-15 06:30 pm S 15.0 17.1----30.03-- 28.6----
2024-04-15 06:24 pm S 13.0 17.1----30.03-- 28.6----
2024-04-15 06:18 pm S 12.0 15.9----30.03- 29.3 28.6----
2024-04-15 06:12 pm S 13.0 18.1----30.03- 28.6 28.6----
2024-04-15 06:06 pm S 13.0 17.1----30.03- 30.4 28.6----
2024-04-15 06:00 pm S 15.9 20.0----30.03-0.02 29.8 28.6----
2024-04-15 05:54 pmSSW 18.1 19.0----30.03- 26.2 28.6----
2024-04-15 05:48 pmSSW 18.1 19.0----30.03- 25.9 28.6----
2024-04-15 05:42 pmSSW 17.1 18.1----30.03- 26.1 28.6----
2024-04-15 05:36 pmSSW 15.9 18.1----30.03- 25.0 28.6----
2024-04-15 05:30 pmSSW 15.9 17.1----30.03- 25.0 28.6----
2024-04-15 05:24 pmSSW 15.0 15.9----30.03- 25.0 28.6----
2024-04-15 05:18 pmSSW 15.9 17.1----30.03- 25.0 28.6----
2024-04-15 05:12 pmSSW 15.9 17.1----30.03- 25.2 28.6----
2024-04-15 05:06 pmSSW 15.9 18.1----30.04- 25.2 28.6----
2024-04-15 05:00 pmSSW 15.9 18.1----30.04-0.01- 28.6----
2024-04-15 04:54 pmSSW 15.9 18.1----30.04-- 28.6----
2024-04-15 04:48 pmSSW 17.1 19.0----30.04- 25.2 28.6----
2024-04-15 04:42 pm SW 17.1 19.0----30.04- 25.2 28.6----
2024-04-15 04:36 pm SW 17.1 20.0----30.04- 24.8 28.6----
2024-04-15 04:30 pmSSW 18.1 20.0----30.04- 24.8 28.6----
2024-04-15 04:24 pm SW 18.1 20.0----30.04- 24.6 28.6----
2024-04-15 04:18 pmSSW 18.1 19.0----30.04-- 28.6----
2024-04-15 04:12 pm SW 17.1 19.0----30.04-- 28.6----
2024-04-15 04:06 pm SW 17.1 19.0----30.04-- 28.6----
2024-04-15 04:00 pm SW 17.1 19.0----30.04+0.00 24.8 28.6----
2024-04-15 03:54 pm SW 19.0 20.0----30.04- 25.0 28.6----
2024-04-15 03:48 pm SW 19.0 21.0----30.05- 24.6 28.6----
2024-04-15 03:42 pm SW 19.0 22.0----30.05- 24.6 28.6----
2024-04-15 03:36 pm SW 20.0 22.9----30.05- 24.6 28.6----
2024-04-15 03:30 pm SW 20.0 22.0----30.05- 24.4 28.6----
2024-04-15 03:24 pmSSW 19.0 21.0----30.05- 24.1 28.6----
2024-04-15 03:18 pm SW 19.0 22.0----30.05- 23.9 28.6----
2024-04-15 03:12 pm SW 20.0 22.0----30.05- 23.7 28.6----
2024-04-15 03:06 pm SW 19.0 21.0----30.05- 24.1 28.6----
2024-04-15 03:00 pm SW 19.0 21.0----30.05+0.01 23.7 28.6----
2024-04-15 02:54 pm SW 19.0 22.0----30.05- 23.4 28.6----
2024-04-15 02:48 pm SW 20.0 22.9----30.05- 23.5 28.6----
2024-04-15 02:42 pm SW 20.0 22.9----30.05- 23.7 28.6----
2024-04-15 02:36 pm SW 19.0 21.0----30.05- 23.4 28.6----
2024-04-15 02:30 pm SW 19.0 20.0----30.05-- 28.6----
2024-04-15 02:24 pm SW 19.0 21.0----30.05-- 28.6----
2024-04-15 02:18 pm SW 19.0 20.0----30.05- 22.8 28.6----
2024-04-15 02:12 pm SW 19.0 22.0----30.05- 23.0 28.6----
2024-04-15 02:06 pm SW 20.0 22.0----30.05- 23.0 28.6----
2024-04-15 02:00 pm SW 18.1 21.0----30.05+0.02 23.2 28.6----
2024-04-15 01:54 pmSSW 18.1 21.0----30.05- 23.0 28.6----
2024-04-15 01:48 pmSSW 19.0 20.0----30.05- 22.8 28.6----
2024-04-15 01:42 pm SW 17.1 19.0----30.05- 22.6 28.6----
2024-04-15 01:36 pm SW 18.1 20.0----30.05- 22.3 28.6----
2024-04-15 01:30 pmSSW 17.1 20.0----30.05- 22.3 28.6----
2024-04-15 01:24 pmSSW 18.1 21.0----30.04- 22.3 28.8----
2024-04-15 01:18 pmSSW 20.0 22.0------ 22.6 28.6----
2024-04-15 01:12 pmSSW 20.0 24.1------ 22.5 28.6----
2024-04-15 01:06 pm SW 21.0 22.9------ 22.5 28.6----
2024-04-15 01:00 pmSSW 21.0 22.9----30.04+0.01 22.1 28.6----
2024-04-15 12:54 pmSSW 20.0 22.9----30.04- 21.9 28.8----
2024-04-15 12:48 pmSSW 20.0 22.0----30.04- 22.1 28.6----
2024-04-15 12:42 pmSSW 21.0 22.0------ 22.3-----
2024-04-15 12:36 pm SW 21.0 24.1----30.05- 22.3 28.6----
2024-04-15 12:30 pmSSW 21.0 24.1----30.05- 22.3 28.8----
2024-04-15 12:24 pm SW 21.0 22.9----30.05- 22.3 28.8----
2024-04-15 12:18 pmSSW 22.0 24.1----30.04- 22.3 28.6----
2024-04-15 12:12 pmSSW 21.0 24.1----30.04- 22.6 28.6----
2024-04-15 12:06 pmSSW 21.0 24.1----30.04- 22.6 28.6----
2024-04-15 12:00 pm SW 22.0 25.1----30.04+0.00 22.6 28.8----
2024-04-15 11:54 amSSW 20.0 22.9----30.04- 22.3 28.8----
2024-04-15 11:48 amSSW 20.0 22.9----30.04- 22.5 28.6----
2024-04-15 11:42 amSSW 21.0 24.1----30.04- 22.5 28.6----
2024-04-15 11:36 amSSW 21.0 24.1----30.04- 22.3 28.6----
2024-04-15 11:30 amSSW 21.0 24.1----30.04- 22.1 28.8----
2024-04-15 11:24 amSSW 22.0 25.1----30.04- 22.1 28.6----
2024-04-15 11:18 amSSW 22.0 25.1----30.03- 22.1 28.6----
2024-04-15 11:12 amSSW 24.1 25.1----30.03- 22.1 28.6----
2024-04-15 11:06 amSSW 22.9 25.1----30.03- 21.9 28.8----
2024-04-15 11:00 amSSW 22.0 24.1----30.03-0.02 21.9 28.8----
2024-04-15 10:54 amSSW 22.9 24.1----30.03- 21.9 28.6----
2024-04-15 10:48 amSSW 24.1 26.0----30.03- 21.7 28.6----
2024-04-15 10:42 amSSW 22.9 25.1----30.03- 21.6 28.6----
2024-04-15 10:36 amSSW 24.1 26.0----30.03- 21.4 28.8----
2024-04-15 10:30 amSSW 22.0 27.0----30.03- 21.2 28.6----
2024-04-15 10:24 amSSW 22.0 25.1----30.03- 21.0 28.6----
2024-04-15 10:18 amSSW 22.9 27.0----30.03- 20.8 28.8----
2024-04-15 10:12 amSSW 25.1 27.0----30.03- 20.8 28.8----
2024-04-15 10:06 amSSW 21.0 26.0----30.03- 20.5 28.6----
2024-04-15 10:00 amSSW 24.1 27.0----30.03-0.03 20.5 28.6----
2024-04-15 09:54 amSSW 22.9 27.0----30.03- 20.3 28.8----
2024-04-15 09:48 amSSW 22.0 25.1----30.03- 20.1 28.8----
2024-04-15 09:42 amSSW 22.9 27.0----30.03- 19.8 28.6----
2024-04-15 09:36 amSSW 22.0 26.0----30.03- 19.9 28.6----
2024-04-15 09:30 amSSW 22.9 25.1----30.03- 19.9 28.8----
2024-04-15 09:24 amSSW 22.9 25.1----30.04- 19.8 28.8----
2024-04-15 09:18 amSSW 22.9 25.1----30.04- 19.2 28.6----
2024-04-15 09:12 amSSW 22.0 25.1----30.04- 18.9 28.6----
2024-04-15 09:06 amSSW 21.0 25.1------ 18.7-----
2024-04-15 09:00 amSSW 24.1 26.0----30.04-0.03 18.7 28.8----
2024-04-15 08:54 amSSW 22.9 25.1------ 18.5-----
2024-04-15 08:48 amSSW 22.9 24.1----30.04- 18.3 28.6----
2024-04-15 08:42 amSSW 22.0 24.1----30.04- 18.0 28.8----
2024-04-15 08:36 amSSW 22.9 25.1----30.04- 18.1 28.8----
2024-04-15 08:30 amSSW 21.0 22.9----30.04- 17.8 28.6----
2024-04-15 08:24 amSSW 21.0 22.9----30.05- 17.4 28.6----
2024-04-15 08:18 amSSW 22.0 24.1----30.05- 17.4 28.8----
2024-04-15 08:12 amSSW 22.0 22.9----30.05- 17.2 28.8----
2024-04-15 08:06 amSSW 21.0 22.0----30.05- 17.1 28.6----
2024-04-15 08:00 amSSW 20.0 22.9----30.05-0.04 16.9 28.6----
2024-04-15 07:54 amSSW 20.0 22.0----30.06- 16.5 28.8----
2024-04-15 07:48 amSSW 20.0 22.0----30.06- 16.3 28.8----
2024-04-15 07:42 amSSW 20.0 22.0----30.06- 16.2 28.6----
2024-04-15 07:36 amSSW 19.0 21.0----30.06- 16.0 28.6----
2024-04-15 07:30 amSSW 19.0 21.0----30.06- 15.6 28.6----
2024-04-15 07:24 amSSW 19.0 20.0----30.06- 15.3 28.8----
2024-04-15 07:18 amSSW 19.0 22.0----30.06- 15.1 28.8----
2024-04-15 07:12 amSSW 20.0 21.0----30.06- 14.9 28.6----
2024-04-15 07:06 amSSW 20.0 22.0----30.06- 14.9 28.6----
2024-04-15 07:00 amSSW 20.0 22.0----30.06-0.04 14.7 28.8----
2024-04-15 06:54 amSSW 20.0 21.0----30.06- 14.9 28.8----
2024-04-15 06:48 am S 18.1 20.0----30.06- 15.6 28.6----
2024-04-15 06:42 am S 13.0 17.1----30.07- 17.8 28.6----
2024-04-15 06:36 am S 14.0 17.1----30.07- 16.5 28.6----
2024-04-15 06:30 am S 11.1 15.0----30.07-- 28.8----
2024-04-15 06:24 am S 14.0 17.1----30.07-- 28.8----
2024-04-15 06:18 am S 14.0 17.1----30.07- 13.6 28.8----
2024-04-15 06:12 am S 13.0 15.9----30.07- 13.5 28.6----
2024-04-15 06:06 am S 11.1 13.0----30.07- 11.5 28.6----
2024-04-15 06:00 am S 12.0 15.0----30.07-0.05 12.0 28.6----
2024-04-15 05:54 am S 13.0 15.0----30.07- 11.3 28.8----
2024-04-15 05:48 am S 12.0 14.0----30.08- 9.3 28.8----
2024-04-15 05:42 am S 11.1 13.0----30.08- 8.4 28.6----
2024-04-15 05:36 am S 9.9 13.0----30.08- 8.1 28.6----
2024-04-15 05:30 am S 11.1 14.0----30.08- 7.7 28.6----
2024-04-15 05:24 amSSE 11.1 12.0----30.08- 6.3 28.8----
2024-04-15 05:18 amSSE 11.1 13.0----30.09- 4.8 28.8----
2024-04-15 05:12 amSSE 11.1 12.0----30.09- 4.8 28.6----
2024-04-15 05:06 amSSE 9.9 12.0----30.09- 3.9 28.6----
2024-04-15 05:00 amSSE 11.1 13.0----30.09-0.04 3.7 28.8----
2024-04-15 04:54 am SE 11.1 12.0----30.09- 3.4 28.8----
2024-04-15 04:48 am SE 12.0 14.0----30.09- 3.7 28.8----
2024-04-15 04:42 am SE 12.0 14.0----30.09- 3.6 28.6----
2024-04-15 04:36 am SE 12.0 14.0----30.09- 3.2 28.6----
2024-04-15 04:30 am SE 13.0 15.0----30.10- 3.0 28.6----
2024-04-15 04:24 am SE 13.0 14.0----30.10- 2.7 28.8----
2024-04-15 04:18 am SE 13.0 14.0----30.10- 2.7 28.8----
2024-04-15 04:12 am SE 12.0 14.0----30.10- 2.7 28.6----
2024-04-15 04:06 am SE 13.0 14.0----30.10- 2.7 28.6----
2024-04-15 04:00 am SE 13.0 15.0----30.10-0.04 2.8 28.8----
2024-04-15 03:54 am SE 12.0 14.0----30.10- 2.8 28.8----
2024-04-15 03:48 am SE 12.0 14.0----30.11- 3.0 28.6----
2024-04-15 03:42 amESE 13.0 15.0----30.11- 3.0 28.6----
2024-04-15 03:36 am SE 12.0 15.0----30.11- 3.2 28.6----
2024-04-15 03:30 am SE 13.0 15.0----30.11- 3.4 28.8----
2024-04-15 03:24 am SE 13.0 15.9----30.11- 3.4 28.8----
2024-04-15 03:18 am SE 13.0 15.0----30.12- 3.4 28.8----
2024-04-15 03:12 am SE 13.0 15.0----30.12- 3.2 28.6----
2024-04-15 03:06 am SE 14.0 15.9----30.12- 3.0 28.6----
2024-04-15 03:00 am SE 13.0 15.9----30.12-0.03 3.2 28.8----
2024-04-15 02:54 am SE 14.0 17.1----30.12- 3.0 28.8----